STARLINK-1597, 46142

Orbit data source: Space-Track

STARLINK-1597, 46142 is a payload satellite owned by SpaceX/Seattle (US) in LEO that was launched on Tue, 18 Aug 2020 UTC via an FALCON 9 launch vehicle from the Air Force Eastern Test Range (AFETR). Payload-class satellites include a variety of spacecraft equipped with specific instruments for various scientific and technological missions. These include communications satellites like Starlink; space stations such as the ISS; scientific satellites like the Hubble; Earth observation satellites from companies like Planet Labs, Umbra, and HawkEye 360; GPS; miniature CubeSats for education and research; and military/defense satellites.

Loading next visibility...
Identifier
46142, 2020-057AB
Orbit
LEO
Country
Flag of USUS
Related business
Manufacturer
SpaceX/Seattle
Mission
Partially operational Commercial Communications
Bus & Motor
STARLINK, Unknown motor
Mass
260 kg wet, ~248 kg dry
Launch date (UTC)
2020-08-18 (6 years ago)
Launch vehicle
FALCON 9
Launch site
Air Force Eastern Test Range (AFETR)
Object type
Payload
Rocket body
Debris
Shape & HBR
Box + 1 Pan, 10.1 m
Radar Cross Section
13.562 m², Large (>1 m²)

Expand to show TLE details & history
Last TLE update: 13 hours ago

TLE from 13 hours ago
0 STARLINK-1597
1 46142U 20057AB  26071.98710166  .00067701  00000-0  92358-3 0  9996
2 46142  53.0491 280.8713 0007041 160.7973 199.3304 15.56871111306852
Epoch: 2026-03-12T23:41Z
TLE epoch observation values (Epoch: 2026-03-12T23:41:25.583Z)
Latitude
-0.00006°
Longitude
114.88555°
Altitude
402.119 km
Speed
7.668 km/s
True Right ascension
18h 43m 29s
True Declination
0° 00' 00"
Sunlit
Object was in daylight at epoch
Visualization orbit readout
Latitude
Unknown
Longitude
Unknown
Altitude
Unknown
Speed
Unknown
Apparent Right ascension
Unknown
Apparent Declination
Unknown
Sunlit
N/A
Visualization observer readout
Local Sidereal Time
17:15:03
Azimuth
Unknown
Elevation
Unknown
Doppler factor
Unknown
Orbital elements
Apogee altitude
401.767 km
Perigee altitude
392.226 km
Semi-major axis
6,775.133 km
Eccentricity
0.0007
Inclination
53.0491°
RAAN
280.8713°
Arg. of periapsis
160.7973°
True anomaly
199.30371°
Mean anomaly
199.3304°
Eccentric anomaly
199.31706°
Mean motion
3.89194 °/min
Orbital period
92.5 mins
BSTAR
0.00092358
Loading maneuver chart data...
Computing Atmospheric mass density...

Documentation

Showing up to 5 results
|